Location: Baia Mare
(47.6567°N, 23.5850°E)
Time: 14:37:29
(UTC+03:00)

ISS - Pass Details

Date: 19 July 2019
Orbit: 409 x 418 km, 51.6° (Epoch: 21 July)

Event Time Altitude Azimuth Distance (km) Brightness Sun altitude
Rises 04:54:59 0° 285° (WNW) 2,343 -0.3 -7.7°
Reaches altitude 10° 04:57:41 10° 262° (W) 1,476 -1.5 -7.4°
Maximum altitude 04:59:42 15° 224° (SW) 1,193 -2.1 -7.1°
Drops below altitude 10° 05:01:42 10° 186° (S) 1,467 -1.4 -6.9°
Sets 05:04:23 0° 163° (SSE) 2,322 -0.2 -6.5°
